sat.trackr.live / text

‹ back to catalog

STARLINK-3733

NORAD 52137 · 2022-029BB

PAYLOAD ACTIVE UNKNOWN

§ Identity

Operator
Country
US
Launch date
2022-03-19
Launch site
AFETR
Launch vehicle
Mass (kg)
RCS (m²)

Purposes: comms

External: N2YO · Heavens-Above · Gunter

§ Orbital elements

Epoch: 2026-09-19T15:37:55.270560Z

Period
93.85 min
Inclination
53.1605°
Eccentricity
0.0001202
Mean motion
15.34393798 rev/d
Perigee alt
461.9 km
Apogee alt
463.5 km
Semi-major
6,840.9 km
B*
3.5267e-5
RAAN
273.3331°
Arg perigee
79.0730°
Mean anomaly
281.0408°
Rev number
25,028

§ Raw data

STARLINK-37331 52137U 22029BB  26262.65133415  .00000815  00000+0  35267-4 0  99992 52137  53.1605 273.3331 0001202  79.0730 281.0408 15.34393798250285

JSON: /api/v1/satellites/52137 · /tle

For live sub-satellite position, see the globe view (requires WebGL).

§ Visibility from observer

Set your observer location to see the next 7 days of passes ≥ 10°. The values pass through the URL so the page stays shareable.

No JS? Fill the form by hand. The geolocation button needs JavaScript.